Volver al catálogo

STARLINK-32250

ActivoComunicacionesVLEO
NORAD 60425·PAYLOAD·🇺🇸 United States

Lanzado Aug 12, 2024 desde Cape Canaveral Space Force Station

Loading…

Próximos Pases (próximas 24 horas)

TLE

ActualizadoSource: CelesTrak SupGP

Época: Sep 14, 2026, 21:25 UTC

1 60425C 24144A   26257.89284722  .00046757  00000+0  13819-2 0  2575
2 60425  53.1582  55.6037 0001222  84.4099 329.5871 15.34357759    15

Sigue STARLINK-32250 en tiempo real con AllMySat

Download on the App Store